Time,TemperatureF,DewpointF,PressureIn,WindDirection,WindDirectionDegrees,WindSpeedMPH,WindSpeedGustMPH,Humidity,HourlyPrecipIn,Conditions,Clouds,dailyrainin,SolarRadiationWatts/m^2,SoftwareType,DateUTC
2013-07-15 00:01:00,52.0,52.0,-100.00,North,4,10.0,20.0,100,0.00,,,0.00,4.000000,,2013-07-15 07:01:00,
2013-07-15 00:44:00,50.0,50.0,-100.00,North,3,9.0,20.0,100,0.00,,,0.00,4.000000,,2013-07-15 07:44:00,
2013-07-15 00:53:00,50.0,50.0,-100.00,North,3,9.0,20.0,100,0.00,,,0.00,4.000000,,2013-07-15 07:53:00,
2013-07-15 01:01:00,50.0,50.0,-100.00,North,3,9.0,20.0,100,0.00,,,0.00,4.000000,,2013-07-15 08:01:00,
2013-07-15 01:32:00,51.0,51.0,-100.00,NNW,346,8.0,18.0,100,0.00,,,0.00,4.000000,,2013-07-15 08:32:00,
2013-07-15 01:43:00,51.0,51.0,-100.00,NNW,346,8.0,18.0,100,0.00,,,0.00,4.000000,,2013-07-15 08:43:00,
2013-07-15 01:53:00,51.0,51.0,-100.00,NNW,346,8.0,18.0,100,0.00,,,0.00,4.000000,,2013-07-15 08:53:00,
2013-07-15 02:01:00,51.0,51.0,-100.00,NNW,346,8.0,18.0,100,0.00,,,0.00,4.000000,,2013-07-15 09:01:00,
2013-07-15 02:32:00,50.0,50.0,-100.00,NNW,341,5.0,15.0,100,0.00,,,0.00,4.000000,,2013-07-15 09:32:00,
2013-07-15 02:43:00,50.0,50.0,-100.00,NNW,341,5.0,15.0,100,0.00,,,0.00,4.000000,,2013-07-15 09:43:00,
2013-07-15 02:52:00,50.0,50.0,-100.00,NNW,341,5.0,15.0,100,0.00,,,0.00,4.000000,,2013-07-15 09:52:00,
2013-07-15 03:02:00,50.0,50.0,-100.00,NNW,341,5.0,15.0,100,0.00,,,0.00,4.000000,,2013-07-15 10:02:00,
2013-07-15 03:32:00,48.0,48.0,-100.00,NNE,29,0.0,8.0,100,0.00,,,0.00,6.000000,,2013-07-15 10:32:00,
2013-07-15 03:43:00,48.0,48.0,-100.00,NNE,29,0.0,8.0,100,0.00,,,0.00,6.000000,,2013-07-15 10:43:00,
2013-07-15 03:53:00,48.0,48.0,-100.00,NNE,29,0.0,8.0,100,0.00,,,0.00,6.000000,,2013-07-15 10:53:00,
2013-07-15 04:01:00,48.0,48.0,-100.00,NNE,29,0.0,8.0,100,0.00,,,0.00,6.000000,,2013-07-15 11:01:00,
2013-07-15 04:32:00,44.0,44.0,-100.00,SSE,152,0.0,0.0,100,0.00,,,0.00,7.000000,,2013-07-15 11:32:00,
2013-07-15 04:42:00,44.0,44.0,-100.00,SSE,152,0.0,0.0,100,0.00,,,0.00,7.000000,,2013-07-15 11:42:00,
2013-07-15 04:52:00,44.0,44.0,-100.00,SSE,152,0.0,0.0,100,0.00,,,0.00,7.000000,,2013-07-15 11:52:00,
2013-07-15 05:01:00,44.0,44.0,-100.00,SSE,152,0.0,0.0,100,0.00,,,0.00,7.000000,,2013-07-15 12:01:00,
2013-07-15 05:33:00,44.0,44.0,-100.00,SSE,157,0.0,2.0,100,0.00,,,0.00,6.000000,,2013-07-15 12:33:00,
2013-07-15 05:42:00,44.0,44.0,-100.00,SSE,157,0.0,2.0,100,0.00,,,0.00,6.000000,,2013-07-15 12:42:00,
2013-07-15 05:53:00,44.0,44.0,-100.00,SSE,157,0.0,2.0,100,0.00,,,0.00,6.000000,,2013-07-15 12:53:00,
2013-07-15 06:01:00,44.0,44.0,-100.00,SSE,157,0.0,2.0,100,0.00,,,0.00,6.000000,,2013-07-15 13:01:00,
2013-07-15 06:43:00,45.0,45.0,-100.00,ESE,111,0.0,0.0,100,0.00,,,-99.99,8.000000,,2013-07-15 13:43:00,
2013-07-15 06:53:00,45.0,45.0,-100.00,ESE,111,0.0,0.0,100,0.00,,,-99.99,8.000000,,2013-07-15 13:53:00,
2013-07-15 07:02:00,45.0,45.0,-100.00,ESE,111,0.0,0.0,100,0.00,,,-99.99,8.000000,,2013-07-15 14:02:00,
2013-07-15 07:33:00,46.0,46.0,-100.00,ENE,66,0.0,2.0,100,0.00,,,0.00,40.000000,,2013-07-15 14:33:00,
2013-07-15 07:42:00,46.0,46.0,-100.00,ENE,66,0.0,2.0,100,0.00,,,0.00,40.000000,,2013-07-15 14:42:00,
2013-07-15 07:58:00,46.0,46.0,-100.00,ENE,66,0.0,2.0,100,0.00,,,0.00,40.000000,,2013-07-15 14:58:00,
2013-07-15 08:41:00,53.0,53.0,-100.00,North,352,2.0,4.0,100,0.00,,,-99.99,182.000000,,2013-07-15 15:41:00,
2013-07-15 08:47:00,53.0,53.0,-100.00,North,352,2.0,4.0,100,0.00,,,-99.99,182.000000,,2013-07-15 15:47:00,
2013-07-15 08:53:00,53.0,53.0,-100.00,North,352,2.0,4.0,100,0.00,,,-99.99,182.000000,,2013-07-15 15:53:00,
2013-07-15 09:03:00,53.0,53.0,-100.00,North,352,2.0,4.0,100,0.00,,,-99.99,182.000000,,2013-07-15 16:03:00,
2013-07-15 09:33:00,56.0,52.0,-100.00,North,353,11.0,18.0,88,0.00,,,0.00,451.000000,,2013-07-15 16:33:00,
2013-07-15 09:52:00,56.0,52.0,-100.00,North,353,11.0,18.0,88,0.00,,,0.00,451.000000,,2013-07-15 16:52:00,
2013-07-15 10:02:00,56.0,52.0,-100.00,North,353,11.0,18.0,88,0.00,,,0.00,451.000000,,2013-07-15 17:02:00,
2013-07-15 10:50:00,57.0,52.0,-100.00,North,355,13.0,21.0,82,0.00,,,0.00,632.000000,,2013-07-15 17:50:00,
2013-07-15 10:57:00,57.0,52.0,-100.00,North,355,13.0,21.0,82,0.00,,,0.00,632.000000,,2013-07-15 17:57:00,
2013-07-15 11:03:00,57.0,52.0,-100.00,North,355,13.0,21.0,82,0.00,,,0.00,632.000000,,2013-07-15 18:03:00,
2013-07-15 11:39:00,60.0,54.0,-100.00,SW,219,12.0,25.0,82,0.00,,,0.00,787.000000,,2013-07-15 18:39:00,
2013-07-15 11:45:00,60.0,54.0,-100.00,SW,219,12.0,25.0,82,0.00,,,0.00,787.000000,,2013-07-15 18:45:00,
2013-07-15 12:02:00,60.0,54.0,-100.00,SW,219,12.0,25.0,82,0.00,,,0.00,787.000000,,2013-07-15 19:02:00,
2013-07-15 12:48:00,60.0,54.0,-100.00,North,351,13.0,27.0,81,0.00,,,0.00,905.000000,,2013-07-15 19:48:00,
2013-07-15 12:56:00,60.0,54.0,-100.00,North,351,13.0,27.0,81,0.00,,,0.00,905.000000,,2013-07-15 19:56:00,
2013-07-15 13:03:00,60.0,54.0,-100.00,North,351,13.0,27.0,81,0.00,,,0.00,905.000000,,2013-07-15 20:03:00,
2013-07-15 13:37:00,60.0,54.0,-100.00,North,7,13.0,26.0,80,0.00,,,0.00,974.000000,,2013-07-15 20:37:00,
2013-07-15 13:43:00,60.0,54.0,-100.00,North,7,13.0,26.0,80,0.00,,,0.00,974.000000,,2013-07-15 20:43:00,
2013-07-15 13:56:00,60.0,54.0,-100.00,North,7,13.0,26.0,80,0.00,,,0.00,974.000000,,2013-07-15 20:56:00,
2013-07-15 14:02:00,60.0,54.0,-100.00,North,7,13.0,26.0,80,0.00,,,0.00,974.000000,,2013-07-15 21:02:00,
2013-07-15 14:40:00,59.0,54.0,-100.00,North,355,13.0,25.0,84,0.00,,,-99.99,935.000000,,2013-07-15 21:40:00,
2013-07-15 14:48:00,59.0,54.0,-100.00,North,355,13.0,25.0,84,0.00,,,-99.99,935.000000,,2013-07-15 21:48:00,
2013-07-15 14:58:00,59.0,54.0,-100.00,North,355,13.0,25.0,84,0.00,,,-99.99,935.000000,,2013-07-15 21:58:00,
2013-07-15 15:34:00,56.0,52.0,-100.00,North,350,10.0,25.0,86,0.00,,,0.00,740.000000,,2013-07-15 22:34:00,
2013-07-15 15:43:00,56.0,52.0,-100.00,North,350,10.0,25.0,86,0.00,,,0.00,740.000000,,2013-07-15 22:43:00,
2013-07-15 15:54:00,56.0,52.0,-100.00,North,350,10.0,25.0,86,0.00,,,0.00,740.000000,,2013-07-15 22:54:00,
2013-07-15 16:48:00,57.0,53.0,-100.00,North,0,12.0,21.0,85,-99.99,,,0.00,848.000000,,2013-07-15 23:48:00,
2013-07-15 16:54:00,57.0,53.0,-100.00,North,0,12.0,21.0,85,-99.99,,,0.00,848.000000,,2013-07-15 23:54:00,
2013-07-15 17:03:00,57.0,53.0,-100.00,North,0,12.0,21.0,85,-99.99,,,0.00,848.000000,,2013-07-16 00:03:00,
2013-07-15 17:49:00,59.0,54.0,-100.00,North,4,13.0,23.0,83,0.00,,,0.00,737.000000,,2013-07-16 00:49:00,
2013-07-15 18:03:00,59.0,54.0,-100.00,North,4,13.0,23.0,83,0.00,,,0.00,737.000000,,2013-07-16 01:03:00,
2013-07-15 18:49:00,57.0,53.0,-100.00,North,358,13.0,25.0,86,0.00,,,0.00,567.000000,,2013-07-16 01:49:00,
2013-07-15 18:59:00,57.0,53.0,-100.00,North,358,13.0,25.0,86,0.00,,,0.00,567.000000,,2013-07-16 01:59:00,
2013-07-15 19:35:00,57.0,51.0,-100.00,North,352,14.0,29.0,80,0.00,,,0.00,386.000000,,2013-07-16 02:35:00,
2013-07-15 19:54:00,57.0,51.0,-100.00,North,352,14.0,29.0,80,0.00,,,0.00,386.000000,,2013-07-16 02:54:00,
2013-07-15 20:02:00,57.0,51.0,-100.00,North,352,14.0,29.0,80,0.00,,,0.00,386.000000,,2013-07-16 03:02:00,
2013-07-15 20:40:00,54.0,51.0,-100.00,North,6,9.0,31.0,89,0.00,,,0.00,203.000000,,2013-07-16 03:40:00,
2013-07-15 20:48:00,54.0,51.0,-100.00,North,6,9.0,31.0,89,0.00,,,0.00,203.000000,,2013-07-16 03:48:00,
2013-07-15 20:57:00,54.0,51.0,-100.00,North,6,9.0,31.0,89,0.00,,,0.00,203.000000,,2013-07-16 03:57:00,
2013-07-15 21:01:00,54.0,51.0,-100.00,North,6,9.0,31.0,89,0.00,,,0.00,203.000000,,2013-07-16 04:01:00,